Regional Weather Roundup
Issued by NWS

Home | Current Version | Previous Version | Text Only | Print | Product List | Glossary On
Versions: 1 2 3 4 5 6 7 8 9 10 11 12 13 14 15 16 17 18 19 20 21 22 23 24 25 26 27 28 29 30 31 32 33 34 35 36 37 38 39 40 41 42 43 44 45 46 47 48 49 50
000
ASUS44 KFWD 011315
RWRTX
NORTH TEXAS HOURLY WEATHER ROUNDUP
NATIONAL WEATHER SERVICE FORT WORTH TX
800 AM CDT TUE SEP 01 2015

NOTE: "FAIR" INDICATES FEW OR NO CLOUDS BELOW 12,000 FEET WITH NO
SIGNIFICANT WEATHER AND/OR OBSTRUCTIONS TO VISIBILITY.

TXZ118-119-011400-
DALLAS/FORT WORTH METROPLEX

CITY           SKY/WX    TMP DP  RH WIND       PRES   REMARKS
DFW AIRPORT    MOSUNNY   76  69  79 S6        30.02R
DALLAS LOVE    MOSUNNY   77  69  76 S6        30.02S
FTW MEACHAM    SUNNY     75  69  81 S7        30.02R
DAL-EXECUTIVE  SUNNY     74  69  85 CALM      30.02S
FTW-ALLIANCE   SUNNY     74  69  85 S5        30.02R
FTW-NAS-JRB    MOSUNNY   75  70  84 S7        30.03R
FTW-SPINKS     SUNNY     72  68  88 CALM      30.04S
ARLINGTON      SUNNY     75  68  78 SE6       30.03R
GRAND PRAIRIE  SUNNY     75  70  83 SE7       30.04R
ADDISON        SUNNY     77  68  73 S8        30.05R
MESQUITE       SUNNY     72  72 100 CALM      30.03R
LANCASTER      SUNNY     73  65  78 CALM      30.03S
$$

TXZ091>094-102>105-117-120-121-131>134-011400-
NORTH CENTRAL TEXAS

CITY           SKY/WX    TMP DP  RH WIND       PRES   REMARKS
SHRMAN/DENISON SUNNY     75  71  87 S6        30.05R
GAINESVILLE    SUNNY     74  67  81 SE6       30.05S
BOWIE          SUNNY     70  66  89 SE3       30.03R
BRIDGEPORT     SUNNY     70  70 100 CALM      30.05R
DECATUR        SUNNY     72  67  84 SE6       30.04S
DENTON         SUNNY     74  69  85 S5        30.02R
MCKINNEY       SUNNY     75  70  84 S5        30.03S
GREENVILLE     SUNNY     73  70  88 CALM      30.03S
ROCKWALL       SUNNY     74  71  89 CALM      30.02S
TERRELL        SUNNY     74  70  87 CALM      30.03S
WAXAHACHIE     SUNNY     71  71 100 CALM      30.04S
CLEBURNE         N/A     72  72 100 S6        30.05R
GRANBURY       SUNNY     74  68  82 SE5       30.04R
$$

TXZ083>090-098>101-113>116-127>130-139>142-154-155-011400-
WESTERN NORTH TEXAS

CITY           SKY/WX    TMP DP  RH WIND       PRES   REMARKS
WICHITA FALLS  CLEAR     70  66  87 VRB5      30.01R
WF-KICKAPOO    CLEAR     74  68  81 SE12      30.03R
VERNON         CLEAR     72  60  66 SE5       30.02R
ABILENE        CLEAR     72  66  81 S9        30.04R
ABILENE-DYESS  CLEAR     72  66  80 S6        30.02R
BRECKENRIDGE   CLEAR     73  66  79 S5        30.03R
GRAHAM         CLEAR     73  68  86 SE6       30.01S
MINERAL WELLS  SUNNY     71  68  90 SE8       30.01R
STEPHENVILLE   SUNNY     69  66  90 CALM      30.07R
COMANCHE       CLEAR     68  68 100 SE3       30.04R
BROWNWOOD      CLEAR     70  66  88 CALM      30.05R
COLEMAN        CLEAR     69  66  88 CALM      30.06R
BRADY          CLEAR     72  70  94 CALM      30.04R
$$

TXZ143>147-156>162-174-175-011400-
CENTRAL TEXAS

CITY           SKY/WX    TMP DP  RH WIND       PRES   REMARKS
WACO           SUNNY     72  69  90 E6        30.02R
WACO-TSTC      SUNNY     72  70  94 CALM      30.03R
WACO-MCGREGOR  SUNNY     71  69  93 E3        30.03R
HILLSBORO      SUNNY     72  67  85 SE3       30.03S
CORSICANA      SUNNY     74  70  87 SE5       30.04R
MEXIA          SUNNY     70  69  98 NE6       30.03R
HEARNE         SUNNY     70  69  96 CALM      30.04R
CAMERON        CLOUDY    71  70  98 CALM      30.04R FOG
TEMPLE         CLOUDY    72  66  83 SE3       30.04R
KILLEEN        MOSUNNY   72  70  94 SE6       30.03R
KILLEEN-SKYLRK CLOUDY    72  66  83 SE6       30.01S
FORT HOOD      MOSUNNY   72  70  94 SE7       30.03R
GATESVILLE     SUNNY     70  70 100 SE6       30.06R
HAMILTON       SUNNY     70  70 100 SE6       30.05R
LAMPASAS       SUNNY     71  69  95 CALM      30.03
$$

TXZ095>097-106>112-122>126-135>138-148>153-164>167-011400-
EAST TEXAS

CITY           SKY/WX    TMP DP  RH WIND       PRES   REMARKS
PARIS          SUNNY     72  63  73 E5        30.04S
SULPHUR SPRNGS SUNNY     73  70  91 CALM      30.06R
MOUNT PLEASANT SUNNY     69  68  98 CALM      30.07R
MINEOLA        SUNNY     70  70 100 CALM      30.05R
TYLER          SUNNY     73  69  87 CALM      30.04R
LONGVIEW       MOSUNNY   72  69  90 CALM      30.05R
MARSHALL       PTSUNNY   73  71  91 CALM      30.08R
ATHENS         SUNNY     68  68 100 CALM      30.03R
PALESTINE      SUNNY     69  69 100 CALM      30.05R
JACKSONVILLE   FOG       70  69  96 E5        30.08R VSB 1/4
HENDERSON      SUNNY     70  70  98 CALM      30.07R
CENTER         FAIR      74  71  90 MISG      30.06R
NACOGDOCHES    MOSUNNY   70  68  94 SE3       30.05R
LUFKIN         CLOUDY    70  70 100 E6        30.06R FOG
$$

SUPPLEMENTAL OBSERVATIONS (CENTRAL)

CITY           SKY/WX    TMP DP  RH WIND       PRES   REMARKS
LAKE TEXOMA      N/A     72  68  88 E2          N/A
CADDO GRASSLND   N/A     73  68  83 S3          N/A
PAT MAYSE LAKE   N/A     73  68  83 NE5         N/A
GREENVILLE       N/A     75  68  78 CALM        N/A
CEDAR HILL       N/A     73  66  78 S3          N/A
ATHENS           N/A     73  70  88 SE6         N/A
LAKE LIMESTONE   N/A     72  66  83 CALM        N/A
MCGREGOR         N/A     70  66  88 S1          N/A
TEMPLE           N/A     72  68  88 SE3         N/A
$$

SUPPLEMENTAL OBSERVATIONS (WEST)

CITY           SKY/WX    TMP DP  RH WIND       PRES   REMARKS
MILLERS CREEK    N/A     73  64  73 S6          N/A
POSSUM KINGDOM   N/A     73  64  73 SE6         N/A
LBJ GRASSLAND    N/A     73  66  78 SE7         N/A
GRANBURY         N/A     73  68  83 SE8         N/A
COMANCHE         N/A     70  64  83 SE6         N/A
HAMBY            N/A     73  64  73 S7          N/A
IVIE RESERVOIR   N/A     72  64  78 E1          N/A
COLORADO BEND    N/A     70  66  88 S3          N/A
$$

SUPPLEMENTAL OBSERVATIONS (EAST)

CITY           SKY/WX    TMP DP  RH WIND       PRES   REMARKS
CLARKSVILLE      N/A     72  68  88 E2          N/A
TEXARKANA        N/A     66  64  94 CALM        N/A
LINDEN           N/A     70  64  83 E1          N/A
GILMER           N/A     70  66  88 SE1         N/A
HENDERSON        N/A     72  66  83 E2          N/A
N SABINE NF      N/A     73  68  83 MISG        N/A
S SABINE NF      N/A     73  70  88 CALM        N/A
$$

SUPPLEMENTAL OBSERVATIONS ARE A COLLECTION OF AUTOMATED INSTRUMENTS
THAT ARE MAINTAINED BY A VARIETY OF FEDERAL AND STATE AGENCIES.
CERTAIN ELEMENTS...SUCH AS HUMIDITY VALUES AND SUSTAINED WIND
SPEEDS...MAY BE APPROXIMATED.




USA.gov is the U.S. government's official web portal to all federal, state and local government web resources and services.